GFSGL_sfc_wetblb_096.txt.gz
Wetbulb
37.91 37.33 36.53 35.75 35.62 35.50 34.75 33.78 33.79 34.15 34.18 34.01 33.73 33.47 33.39 33.49 33.87 33.53 33.65 34.65 34.04 33.10 33.35 33.13 33.43 34.26 34.24 34.55 35.06 35.51 35.41 35.36 32.66 34.02 35.82 36.51 36.08 36.33 37.28 38.18 38.91 38.99 40.46
36.56 35.98 35.43 35.03 34.08 33.29 32.67 32.53 32.74 32.43 32.91 32.62 32.51 32.07 32.23 32.37 32.41 32.13 32.24 33.27 32.27 31.85 32.33 32.13 32.10 33.48 32.11 32.38 32.60 32.34 32.99 33.72 32.63 30.40 32.77 33.23 33.48 35.04 35.84 35.74 36.99 38.26 38.18
35.30 34.43 33.60 32.92 32.16 31.57 31.44 31.73 31.55 31.18 31.00 31.45 31.25 30.52 30.49 31.12 31.09 32.04 32.37 32.45 32.27 32.08 31.95 31.31 31.28 30.86 29.63 30.43 30.88 31.17 31.92 32.49 32.88 31.04 30.39 32.79 32.94 33.91 32.95 33.88 34.72 35.56 36.32
33.52 32.79 31.68 31.31 31.08 30.98 30.73 29.84 29.85 29.99 29.35 29.34 29.32 29.39 29.60 30.09 30.69 31.32 31.45 31.03 30.83 31.53 32.03 31.57 30.65 30.12 29.58 30.30 30.56 30.76 31.36 30.95 31.03 30.74 30.36 30.79 31.33 32.22 32.99 32.49 32.21 33.98 33.08
32.59 31.47 31.02 30.99 30.42 29.32 28.81 28.38 28.07 27.50 27.95 27.74 27.31 27.61 28.17 28.69 30.39 30.21 30.10 29.62 30.37 30.67 31.09 30.79 30.85 31.09 32.30 32.36 30.88 30.45 30.64 30.75 30.54 30.02 29.40 29.60 29.65 29.69 29.37 30.75 29.97 30.88 31.37
31.04 30.54 30.54 29.49 28.01 27.49 27.06 26.95 26.99 26.57 26.29 26.67 26.60 26.73 26.39 28.24 31.22 32.80 31.90 30.06 30.31 29.73 29.24 29.90 30.34 30.37 31.35 32.20 32.70 33.68 33.44 31.49 30.62 29.61 28.88 27.74 27.84 28.44 29.62 29.71 29.48 28.69 25.03
29.73 29.06 28.30 27.47 26.63 26.15 25.98 25.84 25.60 25.26 25.42 25.32 25.38 25.52 25.23 25.60 30.80 32.14 32.07 30.05 29.57 29.82 29.52 29.81 29.78 30.14 30.45 30.44 31.84 33.67 33.55 34.15 34.10 31.47 28.88 28.31 28.78 30.67 31.24 29.69 27.97 26.92 26.12
28.70 27.44 26.77 26.33 25.03 24.20 23.93 23.79 23.84 24.02 23.37 23.73 24.07 24.37 24.12 25.14 29.91 31.42 32.06 29.82 29.68 29.73 29.48 30.20 29.71 29.76 30.39 30.57 31.47 30.99 31.11 31.59 31.27 31.25 31.36 31.56 32.19 31.11 28.54 27.05 25.37 23.39 25.77
27.21 26.73 26.09 24.92 23.11 22.16 21.23 21.50 22.35 21.54 21.65 21.27 23.67 20.15 18.92 21.41 28.38 30.93 30.74 27.46 28.36 27.94 28.88 29.58 28.60 29.45 32.20 33.55 31.32 30.54 30.13 30.00 32.12 32.50 33.21 32.48 31.10 30.19 28.96 21.29 19.38 18.71 20.05
26.97 26.36 25.14 23.28 20.75 20.05 21.17 20.70 20.75 19.18 21.64 21.61 20.35 18.67 17.60 13.97 26.07 29.24 29.55 26.29 19.65 27.42 29.65 30.94 29.98 31.16 33.02 34.06 32.02 29.79 28.30 29.45 28.01 24.04 23.86 24.07 25.26 23.85 27.11 19.98 19.60 15.85 16.46
25.73 23.71 21.80 20.86 19.98 19.91 19.02 19.03 16.05 13.29 15.68 10.38 14.23 14.16 13.67 16.65 19.81 28.48 29.95 26.97 26.91 28.44 28.59 28.30 29.35 31.91 33.71 33.78 33.52 27.29 29.66 30.73 27.78 16.22 16.72 18.70 19.56 20.09 20.93 19.49 19.19 19.78 16.31
22.14 19.75 18.35 17.88 21.08 18.49 15.59 12.96 10.72 9.98 8.74 7.17 6.50 10.70 15.73 18.16 23.43 26.91 29.56 30.36 30.63 28.29 27.41 28.98 29.96 32.69 32.38 31.85 31.10 31.72 31.66 29.70 18.40 12.55 11.58 14.94 21.92 18.83 22.21 21.39 20.07 18.61 19.34
18.75 17.08 15.76 16.82 17.46 16.23 12.95 10.60 10.75 5.95 6.34 8.02 11.25 8.44 12.35 18.25 19.44 26.45 27.67 29.53 29.36 27.80 28.44 31.56 32.33 31.67 31.19 28.55 30.04 29.27 26.37 25.73 24.68 23.40 19.82 16.09 18.03 19.96 18.68 18.14 15.39 14.60 15.31
17.18 16.20 15.45 15.66 14.62 12.28 15.43 14.14 7.22 4.92 4.24 7.44 7.04 9.87 10.92 15.61 18.90 20.67 25.34 27.53 27.48 27.64 27.71 30.20 29.37 27.41 27.69 26.24 22.51 21.78 20.77 18.22 18.91 22.88 21.99 17.09 17.28 16.87 16.13 16.86 11.69 16.22 10.02
16.96 15.50 15.48 13.44 12.98 10.96 11.97 9.57 12.27 11.54 11.16 5.61 12.65 16.47 19.98 11.73 18.35 27.75 27.31 26.22 26.30 27.20 28.48 25.76 13.25 12.32 13.36 14.77 14.03 13.46 14.84 14.99 15.14 16.40 12.80 14.86 14.71 15.94 15.48 12.82 11.72 7.35 5.82
15.07 14.85 13.22 11.94 10.23 10.15 9.38 8.41 16.10 18.98 21.23 22.73 24.26 24.46 24.38 26.42 26.43 26.51 27.40 27.54 27.30 28.75 24.12 13.04 7.04 8.62 11.50 12.91 11.51 11.57 11.18 11.71 12.68 12.64 9.42 10.71 12.56 14.81 12.88 10.77 8.36 3.34 2.53
15.72 12.79 10.41 10.46 8.76 8.06 6.87 5.57 3.93 9.96 17.65 20.91 22.78 24.70 24.17 23.40 24.25 25.81 25.81 25.63 25.81 20.74 4.98 1.48 3.63 5.43 6.86 10.55 10.20 9.34 8.68 8.69 6.39 7.55 5.51 7.79 9.34 9.34 8.35 5.88 6.39 5.55 2.03
9.01 9.06 8.00 6.81 6.35 4.12 3.76 1.84 -0.36 -0.16 0.75 3.43 14.87 20.29 20.73 21.51 21.91 21.91 21.61 15.11 9.57 9.55 3.67 3.19 3.15 7.04 8.08 9.14 9.35 6.92 5.66 5.88 4.01 3.29 1.31 -1.13 1.02 -0.88 -0.73 -1.07 -0.02 -3.06 -1.79
5.00 4.14 3.20 1.85 0.91 2.27 0.95 0.01 -0.71 1.47 2.02 1.65 3.00 11.33 7.72 18.03 17.78 16.10 13.96 -5.41 -4.51 -1.62 -0.38 1.00 1.20 2.79 4.23 4.75 6.74 7.35 6.90 5.56 3.67 -1.88 -3.99 -5.60 -3.99 -5.41 -7.05 -6.68 -1.29 -1.35 -3.80
1.94 3.93 1.72 1.02 -0.80 -1.13 1.14 1.39 2.69 3.29 2.20 0.93 1.66 1.25 -2.38 -1.07 -4.88 -8.50 -9.95 -9.40 -7.05 -6.68 -5.23 -5.05 -4.51 -4.51 -3.44 -1.89 -1.04 1.46 3.67 2.93 1.42 0.65 -0.15 -1.42 -2.72 -3.25 -1.43 -9.04 -10.67 -7.41 -9.76
0.39 0.35 1.55 -0.69 -0.59 0.03 1.26 3.21 3.69 1.66 1.29 -0.70 0.02 2.06 15.51 1.77 -5.96 -8.86 -9.58 -9.76 -8.68 -8.31 -7.23 -7.05 -5.78 -5.41 -5.23 -4.41 -0.40 -0.90 0.64 1.14 0.13 -0.39 -1.12 -2.98 -5.94 -8.68 -11.76 -7.41 -11.21 -13.03 -15.20
1.06 1.89 2.08 1.09 1.60 1.22 0.36 2.07 1.47 1.83 0.55 1.48 0.86 1.60 14.74 0.11 -5.23 -6.15 -8.31 -8.68 -9.04 -8.50 -8.13 -7.59 -7.05 -4.71 0.00 -1.04 0.67 2.14 2.23 1.62 0.04 -0.52 -2.10 -3.42 -4.95 -6.19 -13.41 -13.76 -15.75 -14.30 -15.93
1.98 0.28 -0.80 -3.24 -0.99 -0.47 -0.56 -2.15 -1.43 -0.70 -0.52 -1.24 -1.67 -0.03 -3.99 -6.32 -8.50 -7.77 -6.87 -8.68 -8.68 -7.41 -7.05 -7.05 -4.53 -0.42 0.79 1.91 2.42 2.63 1.65 1.61 0.92 -2.01 -3.98 -5.72 -6.93 -6.46 -17.56 -15.57 -16.47 -18.29 -17.92
1.61 1.57 1.47 0.40 -1.45 -1.43 0.56 -0.70 -1.28 -0.16 -0.70 -1.48 -2.52 -2.72 -1.89 -5.42 -6.50 -2.80 -5.97 -7.41 -6.32 -6.52 -4.40 -2.14 0.93 1.23 0.66 0.20 1.55 1.39 0.54 0.01 -1.21 -2.60 -4.35 -6.35 -8.52 -9.69 -13.61 -17.75 -17.75 -20.28 -17.74
2.96 2.76 1.83 1.65 0.70 0.58 -1.61 -4.15 -3.61 -2.19 -1.01 0.00 -0.66 -1.89 -3.16 -4.56 -4.57 -7.06 -7.60 -4.76 -4.01 -3.11 0.68 1.59 2.26 1.96 1.30 0.75 0.48 -0.22 0.01 2.21 1.38 -1.88 -6.13 -7.40 -7.75 -9.65 -11.04 -12.67 -20.46 -21.55 -19.19
2.34 1.58 1.47 -2.94 -5.05 -4.51 -2.41 -0.04 1.67 1.98 2.15 1.65 -0.22 -1.79 -2.67 -2.66 -2.33 -6.00 -7.80 -6.15 -3.63 -2.25 -2.24 -2.79 -0.92 -0.10 -0.07 0.14 -0.26 1.01 1.11 3.83 0.72 -1.38 -4.34 -6.74 -7.37 -9.11 -13.05 -15.20 -20.46 -21.37 -19.74

GFSGL_sfc_wetblb_102.txt.gz
Wetbulb
41.89 41.63 41.42 40.02 39.15 38.02 36.02 34.62 33.59 32.50 31.70 31.41 31.48 31.31 31.27 31.02 30.96 30.86 31.26 30.83 30.03 30.02 30.04 29.65 29.95 30.59 30.44 30.93 31.29 31.31 30.68 30.45 27.08 29.12 30.42 31.25 30.91 31.65 32.15 32.31 32.60 32.30 32.66
40.18 40.05 38.49 37.41 36.78 35.71 33.36 32.24 31.79 31.06 30.94 30.49 30.44 30.34 30.18 30.36 30.23 29.88 29.72 29.50 29.07 29.08 29.94 29.99 29.80 30.71 29.81 30.35 30.56 30.13 30.34 30.80 29.05 26.49 28.39 29.50 30.40 31.48 31.13 30.08 31.15 32.57 31.85
37.75 37.12 35.64 34.97 34.13 32.61 30.97 30.77 30.61 30.26 29.64 29.08 29.11 28.87 29.09 29.92 29.55 29.98 29.55 29.58 29.29 29.26 28.80 28.21 28.48 28.11 27.17 27.36 27.96 29.35 30.17 30.00 28.66 27.61 28.33 30.30 30.45 31.06 29.30 30.06 29.54 29.17 30.18
35.50 35.17 33.68 32.66 32.09 30.57 30.15 29.81 29.69 29.23 28.19 27.86 28.30 28.40 29.24 28.95 29.97 29.75 29.30 28.84 28.86 29.00 29.60 29.27 28.57 28.02 27.26 27.77 29.12 29.61 28.99 26.71 29.71 29.30 28.17 28.83 29.05 29.77 28.76 26.77 25.85 27.25 26.28
32.66 32.28 30.73 29.88 29.74 29.45 28.96 28.70 28.61 27.86 27.61 27.72 27.31 27.28 27.43 29.11 30.11 28.93 28.87 28.26 28.21 28.01 28.84 28.88 28.91 28.78 31.26 31.29 30.02 29.40 28.30 28.00 29.98 28.57 28.78 26.87 26.90 27.44 26.66 26.86 25.20 24.38 25.22
30.89 29.86 29.47 29.27 28.98 28.89 28.45 28.16 27.79 27.13 26.54 27.00 26.22 26.29 26.24 28.93 33.37 33.22 29.83 28.22 28.62 28.18 27.79 27.91 28.36 28.24 29.50 32.01 32.95 33.82 33.46 30.82 29.86 29.51 26.60 25.49 26.92 28.03 26.92 25.30 23.76 21.22 18.53
30.24 29.57 29.22 28.96 28.51 28.33 27.64 26.73 26.18 25.63 25.74 25.17 25.21 25.36 25.39 27.45 32.39 32.47 31.91 28.44 28.10 27.94 27.83 28.09 28.59 29.26 28.07 28.30 31.39 33.70 33.04 33.80 33.45 30.45 27.06 26.82 27.60 27.03 26.53 24.51 22.55 18.83 18.56
30.32 29.55 28.61 28.36 27.32 26.19 25.53 25.05 24.71 24.17 24.17 24.07 24.19 24.63 24.89 27.41 31.48 31.76 31.89 28.46 28.00 27.90 27.80 27.82 28.25 28.46 29.22 28.95 30.85 31.48 31.30 28.73 29.45 30.49 26.05 26.87 25.56 28.88 28.07 25.46 19.59 15.77 17.33
29.89 29.33 28.22 27.80 26.30 24.85 24.28 23.30 22.86 22.91 22.63 22.32 23.36 21.56 22.75 24.20 29.64 30.84 29.74 28.13 28.38 27.57 27.95 29.09 29.32 29.30 30.74 32.25 30.94 30.34 27.82 26.69 30.76 31.32 29.85 30.03 30.04 29.41 29.21 20.41 17.43 6.36 10.15
29.90 29.43 28.54 27.53 25.79 24.28 23.85 22.70 21.95 21.71 22.24 23.37 22.97 21.66 21.88 22.72 26.60 29.81 29.69 27.81 20.96 25.56 27.20 29.13 29.70 30.34 31.31 32.48 30.45 28.67 26.72 24.61 21.02 16.97 18.29 21.81 23.63 22.82 26.24 20.01 21.62 6.97 4.96
30.61 28.23 25.93 25.08 24.24 23.52 22.33 20.28 20.14 20.78 20.81 19.14 20.81 20.40 21.52 21.23 21.99 28.65 30.10 27.73 27.30 25.52 25.06 27.56 27.80 31.31 31.71 31.88 31.68 29.19 28.75 28.60 25.77 20.72 16.94 15.03 16.76 17.13 18.73 17.71 16.03 20.54 6.79
27.84 26.38 24.64 22.88 23.02 22.45 21.00 19.29 19.29 19.35 18.77 18.22 19.67 19.99 20.56 20.41 22.33 27.34 29.61 30.26 29.77 26.77 26.24 27.24 24.47 30.62 32.29 31.42 29.85 30.47 28.68 22.21 25.40 24.73 23.90 22.70 21.74 15.10 17.85 16.66 13.04 12.33 15.39
27.05 25.17 22.72 21.71 21.72 20.95 19.84 18.79 18.40 18.29 19.01 19.24 19.77 20.31 19.31 20.24 20.98 26.53 28.56 29.73 29.91 26.83 27.64 27.68 28.88 30.49 30.76 28.47 28.24 26.59 16.11 10.32 9.81 10.12 16.80 17.84 14.39 15.78 14.46 12.91 10.27 9.43 10.36
26.24 23.16 21.23 20.97 19.88 19.89 20.67 19.89 19.13 18.43 19.23 19.88 19.51 19.20 17.74 18.75 19.61 20.38 22.13 22.51 26.01 25.39 27.19 26.36 24.73 28.99 26.32 22.95 16.54 17.45 15.82 12.33 11.54 9.47 9.03 9.70 11.14 10.65 9.66 9.60 7.21 9.74 6.73
24.48 21.44 20.88 20.76 19.93 19.35 19.92 19.67 19.96 20.35 21.63 20.28 19.81 19.17 17.58 17.62 19.77 23.74 23.55 18.83 17.25 23.25 25.05 21.92 18.72 22.27 20.41 13.19 8.33 8.10 8.47 7.43 6.57 6.10 4.24 4.26 7.14 8.51 9.07 7.81 6.24 5.30 5.72
21.60 20.47 20.29 19.96 19.60 19.33 18.68 17.47 22.93 22.65 23.90 24.24 23.97 20.80 20.46 23.88 26.46 28.43 27.77 28.01 28.32 28.45 24.95 22.12 18.54 19.58 16.64 8.67 6.51 6.56 6.40 5.84 5.55 4.59 1.05 1.96 4.12 5.24 8.42 11.86 7.59 5.22 7.52
23.77 21.75 20.46 20.17 19.62 18.44 18.04 18.03 16.86 20.15 24.85 25.65 26.84 27.69 27.33 25.06 27.83 26.63 26.80 27.19 26.64 25.05 11.51 11.46 16.99 12.20 6.16 6.92 5.33 4.75 4.04 3.91 1.45 1.59 1.04 0.69 2.36 1.29 2.32 8.29 8.71 9.23 9.00
24.38 22.27 21.47 21.20 20.55 19.60 18.88 19.02 19.13 15.74 15.52 15.56 24.03 25.87 27.58 27.45 25.84 25.16 25.62 17.89 12.82 5.03 -3.92 1.48 4.26 0.25 0.42 1.51 1.01 0.85 0.13 -0.94 -0.43 -1.19 -2.03 -2.99 -4.14 -2.85 2.47 5.55 4.71 2.84 3.67
22.08 21.44 21.66 20.48 19.26 18.52 17.30 15.60 14.37 14.03 13.99 8.64 5.04 16.55 20.47 25.46 24.44 23.41 22.24 3.72 3.34 -1.12 -4.19 -5.20 -6.50 -3.43 -3.89 -5.16 -5.37 -6.76 -7.22 -6.69 -6.44 -8.38 -8.22 -5.47 -3.57 -1.75 -2.85 -2.38 1.48 4.25 3.50
20.82 19.92 18.30 17.15 14.43 13.40 13.91 13.02 10.91 10.46 9.34 10.15 9.72 13.66 5.57 5.19 5.98 3.59 -4.86 -8.06 -7.52 -4.66 -5.15 -5.03 -6.80 -9.25 -8.68 -7.85 -11.29 -11.93 -11.46 -11.13 -10.38 -10.39 -9.11 -7.24 -5.71 -5.58 -3.38 -5.07 -4.72 -2.83 -2.13
15.19 13.56 13.55 11.06 11.87 12.11 12.22 10.40 9.89 9.10 9.67 8.92 9.94 8.60 12.61 7.88 7.71 5.01 1.05 -3.41 -1.89 -3.11 -2.06 -2.81 -7.71 -8.68 -11.60 -14.47 -15.52 -14.74 -13.65 -9.87 -10.23 -11.05 -10.27 -8.66 -6.94 -6.28 -7.55 -2.53 -7.44 -8.82 -10.33
13.83 12.21 9.98 9.59 10.11 8.13 10.39 7.86 5.56 6.41 7.18 7.43 6.26 5.90 19.45 14.84 6.35 4.06 1.49 -0.29 -2.22 -2.89 -3.63 -4.65 -5.70 -7.18 -7.63 -8.65 -8.74 -9.97 -11.27 -9.79 -10.69 -10.51 -9.70 -10.07 -8.65 -7.85 -8.39 -6.25 -5.70 -9.14 -12.12
8.93 7.95 7.19 5.28 7.81 7.72 6.83 7.69 6.47 6.61 6.99 7.09 5.94 5.84 4.25 7.13 3.85 2.81 2.16 0.02 -2.52 -4.11 -5.23 -6.84 -5.01 -8.75 -9.60 -8.86 -8.37 -5.80 -6.57 -6.51 -2.99 -7.14 -6.10 -10.38 -9.93 -9.35 -10.81 -10.56 -9.61 -10.85 -12.49
4.55 6.27 6.68 7.15 7.11 7.75 8.71 8.41 7.64 7.53 7.93 6.42 5.29 5.22 6.75 5.23 -0.35 2.97 1.92 -0.94 -3.15 -5.13 -4.59 -1.77 -2.99 -4.95 -6.71 -8.64 -9.89 -8.71 -7.72 -6.84 -8.47 -4.32 -3.83 -6.55 -7.57 -7.57 -6.75 -8.28 -10.53 -10.23 -7.20
3.49 5.20 6.54 7.14 6.74 6.82 7.39 8.09 8.32 8.29 7.42 7.33 6.81 5.29 5.16 4.25 2.34 2.73 1.90 0.41 -5.23 -2.70 -0.54 0.22 -1.86 -2.49 -3.53 -5.12 -6.83 -8.67 -6.67 1.37 -3.70 -3.86 -6.44 -5.51 -5.99 -7.16 -7.75 -6.83 -6.23 -7.62 -7.96
-0.82 -0.55 -0.05 0.13 0.56 2.77 6.00 6.77 6.20 6.82 7.26 6.42 6.88 6.05 5.97 4.67 4.80 4.48 3.11 0.49 -1.13 0.20 1.49 0.25 -1.44 -1.63 -4.32 -4.09 -4.90 -2.46 -2.37 2.13 -1.16 0.15 -3.65 -5.54 -5.70 -5.29 -5.78 -7.06 -7.91 -7.76 -7.62

GFSGL_sfc_wetblb_105.txt.gz
Wetbulb
47.86 47.51 45.93 44.46 44.73 43.66 42.30 39.47 37.70 36.54 35.68 34.57 34.16 33.66 33.58 33.52 34.22 33.93 33.50 33.33 32.92 32.78 32.59 31.67 31.27 32.07 31.87 32.16 32.78 32.61 31.80 31.36 28.40 30.75 32.56 33.84 33.40 33.70 34.22 34.93 35.09 33.88 34.19
43.54 44.33 43.48 41.61 40.61 39.26 37.85 36.36 35.56 34.37 34.07 33.48 33.05 32.62 32.42 32.48 32.78 33.04 32.53 32.19 31.94 30.90 31.04 31.25 30.73 31.15 31.01 31.58 31.78 31.23 31.34 31.76 30.10 27.30 30.11 31.89 32.50 33.12 33.24 32.88 31.98 32.28 32.55
41.08 40.80 39.67 38.61 38.39 37.24 35.62 34.30 33.91 32.90 32.42 31.96 31.82 31.42 31.55 31.76 32.10 32.34 32.21 31.82 31.46 31.37 31.07 30.70 30.49 30.62 30.00 30.70 31.09 31.01 31.44 31.38 30.50 28.89 29.20 32.36 32.29 32.86 32.21 31.97 31.23 31.68 31.38
38.94 38.51 37.47 36.55 36.34 35.15 33.75 32.97 32.55 31.92 31.06 30.79 30.75 30.92 31.56 31.50 31.77 31.43 31.13 31.19 31.12 31.21 31.54 31.37 30.85 30.40 29.98 30.38 30.70 30.98 31.16 30.82 30.68 30.50 30.46 30.14 30.35 31.68 31.59 28.41 27.72 29.83 28.89
36.86 36.42 35.34 33.54 33.49 32.70 31.93 31.82 30.93 30.37 30.04 29.98 29.42 29.85 30.49 31.16 31.20 30.79 30.70 30.54 30.40 30.26 31.02 30.77 31.07 30.48 30.92 31.77 31.47 31.49 31.42 31.24 31.16 30.41 29.17 28.27 28.30 28.68 26.36 27.46 26.22 27.23 29.04
34.97 34.17 32.43 32.06 31.43 31.53 30.80 30.28 29.63 29.01 28.90 28.75 28.29 28.64 29.10 30.76 33.49 32.64 31.11 30.14 29.99 29.75 29.29 29.88 30.24 29.79 30.53 31.69 32.51 33.65 34.38 32.28 29.85 30.18 28.45 26.86 27.24 27.20 27.15 26.47 25.20 23.09 22.35
33.05 31.66 31.31 30.98 30.48 30.23 29.64 28.58 27.91 27.53 27.70 27.29 27.31 27.66 28.14 30.66 34.39 33.86 31.97 30.07 29.66 29.77 29.50 29.46 29.66 30.29 30.11 30.15 31.31 33.16 32.87 33.13 32.48 31.95 28.53 27.99 27.27 27.77 27.47 26.12 24.87 22.48 22.80
31.25 30.62 30.25 30.24 29.54 28.30 27.72 27.30 26.60 26.64 26.43 26.25 26.30 26.87 27.36 29.15 33.75 33.56 32.09 30.03 29.67 29.54 29.57 29.66 29.80 29.65 30.25 30.28 31.04 31.79 31.62 30.21 30.50 31.57 30.57 29.71 29.44 29.92 29.08 27.62 24.44 21.48 22.34
30.73 30.15 29.43 29.24 28.19 27.06 26.49 25.78 25.56 25.65 25.38 25.64 25.74 25.61 26.47 28.28 32.79 33.01 31.40 29.62 29.16 28.92 29.10 29.78 30.18 29.77 30.88 31.76 32.28 31.08 30.24 30.69 30.81 31.20 30.45 30.32 30.14 29.13 29.00 25.30 23.09 19.93 20.24
30.96 30.53 29.77 29.14 28.35 27.27 26.74 25.22 25.05 25.67 24.99 25.04 24.62 24.11 24.29 25.39 31.22 32.23 30.98 29.27 27.86 27.42 28.90 29.69 29.46 30.74 31.27 32.11 31.58 30.70 28.47 29.86 29.05 25.76 23.55 25.13 25.41 25.26 25.47 23.81 23.30 20.76 18.02
31.70 30.07 28.63 28.02 27.78 27.41 25.61 24.30 23.74 23.93 23.70 23.35 23.07 22.31 22.99 24.08 26.36 31.26 32.17 28.89 27.54 27.38 27.92 28.48 29.00 30.25 31.78 32.03 31.94 30.63 29.89 30.41 27.78 26.16 24.21 24.32 24.57 24.16 24.22 23.24 22.09 22.63 19.20
29.98 28.85 27.93 27.63 26.41 25.41 24.28 22.80 23.00 22.94 21.88 21.02 21.27 20.87 22.41 23.17 24.68 29.54 31.71 31.51 30.50 28.61 27.79 28.43 28.36 29.57 31.28 32.56 31.24 30.41 30.39 25.97 24.20 25.63 25.71 25.57 24.74 22.81 22.40 21.62 20.51 20.29 21.27
28.87 28.25 27.29 25.90 25.21 24.82 23.62 21.92 21.64 21.92 21.53 20.47 21.15 21.57 21.66 22.60 23.24 28.19 30.50 31.50 31.61 29.14 28.68 28.43 28.98 29.70 31.16 31.17 30.08 29.53 19.43 19.30 20.14 20.46 21.36 21.55 20.94 20.28 18.98 19.94 19.24 17.19 16.30
29.43 27.41 25.40 24.92 23.43 23.39 23.56 22.58 22.40 21.46 21.66 21.50 21.70 22.67 23.00 22.35 22.57 23.31 26.05 29.27 29.98 29.92 28.89 28.46 28.11 28.29 29.18 27.17 23.03 22.84 19.71 18.42 19.12 18.81 17.95 17.31 16.71 17.62 17.83 17.47 17.77 17.02 17.55
28.68 25.18 24.38 24.71 23.03 22.10 22.44 22.26 22.44 23.60 24.56 23.16 23.89 24.80 22.86 22.18 23.06 25.19 25.08 24.53 25.48 26.09 24.27 25.73 24.27 24.91 24.48 23.01 19.49 15.52 15.53 15.09 16.00 14.96 14.34 13.92 14.55 14.49 15.60 16.10 14.69 14.23 15.58
24.58 23.06 23.84 22.65 22.16 21.58 21.12 20.90 25.42 24.48 26.57 27.60 27.00 25.52 24.64 25.44 27.01 28.15 28.73 29.11 28.68 28.45 26.98 25.18 24.23 22.64 22.11 23.81 19.87 15.94 14.06 12.08 13.49 12.30 11.29 11.08 12.48 12.41 13.26 14.90 13.68 12.53 13.55
24.68 23.28 22.77 22.43 22.11 21.24 20.95 20.76 19.75 23.34 26.56 27.41 28.02 28.12 26.76 25.10 27.79 28.73 29.80 30.00 29.32 29.16 25.95 24.61 23.35 22.59 21.65 18.11 15.99 13.68 13.89 12.65 9.21 10.17 10.72 9.74 9.59 9.76 10.39 11.77 11.42 11.44 11.55
22.59 22.68 23.03 23.03 22.66 22.33 22.05 21.96 22.37 20.80 20.93 22.24 27.75 27.57 28.62 28.21 27.80 28.72 29.47 28.14 22.85 20.57 15.76 19.84 18.21 16.79 14.64 13.83 12.22 11.19 10.53 8.99 8.54 8.35 7.28 6.13 5.03 6.84 8.45 9.55 9.17 6.99 8.08
23.20 23.03 23.30 23.43 23.43 23.20 22.58 22.38 22.39 22.33 22.81 20.28 16.97 23.98 27.15 28.92 29.63 29.16 28.39 24.59 17.95 16.87 12.99 10.31 9.89 10.33 9.75 8.86 8.72 6.82 6.41 6.63 5.46 3.92 3.35 2.89 3.23 4.03 5.32 5.81 6.17 4.24 5.00
21.20 22.14 22.43 22.63 21.08 20.71 20.06 19.65 19.05 18.31 17.89 16.95 16.23 19.50 15.56 19.19 24.04 23.62 23.00 12.10 10.34 11.10 9.29 8.65 7.25 5.52 4.98 4.30 2.60 2.20 2.30 1.17 1.48 0.85 1.65 1.79 2.58 2.31 3.59 2.59 2.91 4.15 3.85
15.20 15.58 18.30 18.38 18.43 18.95 18.36 17.87 17.46 16.29 15.59 15.05 15.48 15.40 17.34 17.22 19.41 18.10 13.55 8.47 8.43 7.84 7.55 5.70 4.14 2.68 0.37 -0.56 -1.26 -0.82 -0.20 2.68 0.20 -0.07 0.08 0.26 -0.05 0.73 0.50 2.10 1.26 -0.12 0.24
13.26 13.57 12.56 13.78 13.52 14.03 14.72 14.85 14.85 14.24 14.89 14.95 13.83 11.56 20.73 16.55 11.66 12.04 10.80 10.45 8.80 7.47 6.90 5.27 3.01 0.90 -0.50 -1.64 -1.21 -0.75 -0.87 -0.62 -0.95 -0.58 -0.31 -1.29 -0.91 -0.51 -0.81 -0.19 -0.18 0.13 -1.15
7.14 7.10 7.22 7.60 10.26 11.19 11.41 10.96 11.55 12.50 13.40 12.98 13.25 11.52 10.67 15.39 15.89 13.10 11.80 10.85 8.46 5.52 2.97 -0.49 0.90 -0.63 -3.47 -3.07 -0.30 1.56 0.98 -0.38 0.03 0.38 -0.79 -1.51 -1.98 -0.99 -2.35 -1.18 -1.17 -2.52 -2.25
0.05 1.74 2.54 1.98 2.85 4.00 5.69 9.19 10.51 11.04 11.14 11.60 11.22 11.01 10.94 11.23 11.53 11.09 9.95 8.10 5.97 3.49 2.84 0.25 0.88 1.75 0.12 -1.04 -0.31 -0.56 -0.96 0.25 -2.12 -1.65 -1.12 -0.70 -1.16 -2.45 -2.68 -3.73 -3.01 -3.15 -2.62
-3.65 -2.20 -0.47 0.68 2.42 4.42 4.70 6.13 6.62 7.83 8.75 9.79 9.78 10.39 10.57 10.55 9.66 9.02 8.47 7.56 6.19 4.28 3.57 2.13 2.36 2.23 1.62 1.28 0.49 -1.22 -2.57 1.01 -2.09 -2.61 -0.78 -1.85 -2.56 -3.49 -5.00 -3.54 -2.73 -3.20 -3.69
-6.99 -6.16 -5.20 -4.14 -3.62 -2.77 0.50 2.55 4.34 5.87 7.51 8.29 8.62 8.95 9.43 9.30 9.11 8.92 7.95 6.98 5.61 4.87 5.04 4.77 4.19 3.26 2.94 3.39 2.72 2.06 -0.51 1.80 -0.15 -0.87 -1.93 -2.43 -4.83 -4.85 -4.34 -4.36 -4.41 -3.93 -3.91

GFSGL_sfc_wetblb_111.txt.gz
Wetbulb
57.09 60.05 61.00 60.39 60.69 61.41 59.65 57.51 55.12 49.93 46.60 45.14 43.80 44.10 43.02 42.76 41.78 40.63 39.94 39.38 38.50 37.52 38.07 37.17 36.84 37.32 36.72 36.69 37.13 36.82 35.71 35.56 33.67 35.07 35.68 36.64 36.29 35.39 36.01 36.80 36.14 35.14 35.35
54.27 56.27 59.21 58.62 56.00 56.59 53.72 50.34 47.82 46.09 45.01 43.35 42.18 40.73 41.23 40.49 39.87 38.96 37.57 37.90 37.17 36.28 36.59 36.24 35.19 35.86 35.74 36.00 35.93 35.18 35.02 34.86 33.77 31.45 33.41 34.46 34.41 35.06 34.91 34.28 34.28 35.09 34.56
52.21 52.70 55.16 55.36 50.62 50.57 47.97 45.50 43.25 41.97 41.14 40.38 38.78 39.64 38.60 39.25 38.32 38.21 37.06 37.02 36.70 36.37 36.04 35.35 34.66 34.58 33.97 34.46 34.88 34.34 34.47 33.96 32.68 31.69 31.95 34.80 33.81 33.57 32.54 33.09 32.22 32.96 34.31
50.21 50.47 51.24 51.33 50.81 49.88 46.95 43.32 41.16 41.07 38.22 37.81 37.90 37.83 37.16 37.85 37.09 36.61 36.31 35.89 35.55 35.54 36.03 35.56 34.72 34.09 33.84 34.04 33.69 33.65 33.56 32.84 31.83 31.67 32.20 32.59 32.16 32.05 31.49 29.48 28.70 31.00 30.53
47.84 48.28 48.87 48.56 48.08 46.22 43.40 40.72 39.22 39.08 38.43 37.50 36.27 35.58 36.08 35.65 35.99 35.28 35.05 34.67 34.31 33.92 34.32 34.13 34.26 33.53 34.19 35.07 33.88 33.62 33.35 32.54 31.90 31.57 31.50 31.31 30.87 29.62 28.06 28.60 27.71 29.00 29.86
46.29 46.36 46.94 43.98 40.60 38.90 36.72 35.60 35.60 34.56 34.38 32.56 33.45 33.13 33.67 34.25 36.56 36.58 35.11 33.93 33.50 32.73 32.20 32.44 32.70 31.04 32.19 33.04 33.24 34.00 34.93 32.92 30.84 30.51 30.98 29.55 29.16 29.13 29.06 27.81 27.59 25.69 24.15
43.20 41.24 38.89 37.94 36.62 36.71 35.39 33.91 32.72 32.61 31.73 32.22 31.94 32.39 32.51 32.89 36.18 36.31 35.28 33.41 32.78 32.61 31.96 31.25 30.76 30.40 31.29 31.67 32.96 33.57 33.53 34.60 34.44 32.47 30.28 30.30 29.28 29.25 28.98 27.53 27.63 26.18 25.42
40.14 38.01 36.29 35.84 34.66 32.74 31.84 31.61 31.40 30.81 31.03 30.55 30.85 31.95 32.28 32.04 35.97 35.63 33.94 32.68 32.34 32.02 31.58 31.61 31.02 30.65 31.37 31.59 31.53 31.32 32.23 32.38 31.59 31.98 31.67 31.40 30.95 30.32 29.64 29.31 28.09 26.39 26.64
38.27 36.85 35.55 35.33 33.99 32.14 31.14 29.96 29.93 30.00 30.20 30.49 30.90 31.41 31.87 32.14 35.64 34.81 32.69 31.36 30.80 30.66 31.19 31.62 31.84 31.62 32.63 33.11 31.28 30.61 31.06 31.05 32.35 32.84 31.47 31.91 32.17 32.06 31.11 27.19 23.45 25.88 22.83
37.58 36.59 35.49 34.57 33.48 32.42 32.31 31.19 30.98 30.75 30.52 29.70 30.44 31.20 31.52 32.64 35.57 34.81 32.42 31.04 30.30 29.77 30.16 30.80 30.84 32.03 32.79 33.12 31.39 30.64 28.94 30.22 30.56 29.32 30.18 28.97 29.19 28.33 29.28 25.91 23.96 23.19 23.74
36.32 34.91 33.41 33.15 32.88 33.35 33.02 31.18 31.04 30.38 29.37 29.65 29.68 30.10 30.75 31.93 33.79 35.22 33.85 30.90 30.60 29.84 29.54 29.33 30.40 32.80 32.49 32.90 33.15 31.54 30.96 31.84 30.73 28.79 28.75 27.14 27.18 27.49 27.70 27.15 25.23 23.47 21.37
33.88 32.46 32.05 32.09 32.18 32.49 32.30 31.24 30.54 30.12 29.14 28.74 28.53 27.88 28.27 29.27 32.37 35.09 35.08 33.00 32.73 30.56 29.89 30.45 30.72 32.15 32.74 32.97 32.37 33.19 33.34 32.06 30.30 28.73 26.91 26.06 27.00 27.66 28.41 28.20 23.30 22.86 23.31
31.76 31.37 31.97 31.97 31.91 31.98 31.52 30.11 29.06 29.34 28.67 27.65 27.11 26.42 25.86 27.05 28.86 33.48 34.56 34.58 32.61 30.77 31.25 31.51 32.15 32.29 32.43 32.57 33.15 33.50 31.47 29.59 28.80 26.80 25.17 25.85 28.21 28.19 22.04 20.58 20.76 20.11 18.79
31.89 31.39 31.34 30.81 30.80 30.97 31.01 30.36 30.24 29.11 28.69 28.11 26.97 26.82 26.67 25.76 26.29 28.50 30.99 32.74 32.56 32.02 31.39 31.18 31.17 31.00 30.86 30.65 29.91 31.19 30.50 28.69 27.61 26.11 25.16 26.28 25.42 21.17 20.57 21.57 18.78 19.75 17.19
31.90 30.38 31.04 31.29 30.65 29.68 29.32 29.56 28.80 30.03 30.30 29.12 28.76 28.89 27.47 25.44 26.17 28.07 29.30 30.63 31.77 32.41 31.32 30.28 28.98 28.12 27.58 27.98 28.68 28.64 27.93 26.05 22.95 22.81 22.90 22.84 21.46 20.61 19.07 19.65 18.24 15.86 13.82
30.53 29.73 30.38 29.98 29.07 28.86 28.41 27.97 30.38 31.17 30.90 32.11 31.96 30.76 30.43 30.83 30.73 30.33 30.73 31.32 32.35 33.09 30.29 28.36 27.35 26.88 26.23 26.13 26.27 26.44 25.87 24.00 22.91 22.44 22.88 21.28 20.61 19.65 18.98 18.25 16.88 13.96 12.61
29.66 29.38 29.46 27.67 28.20 28.08 27.29 26.98 25.97 27.26 29.15 30.13 31.22 31.32 31.75 30.51 31.61 31.41 31.25 31.75 32.76 33.32 29.11 27.35 26.56 26.16 25.87 25.76 25.75 25.78 25.54 24.06 22.62 21.55 20.74 19.74 18.90 18.16 14.44 14.04 14.67 14.22 11.63
26.99 26.00 28.15 28.69 28.46 28.25 27.59 27.12 27.12 26.67 24.11 24.76 29.44 30.11 31.19 31.30 31.12 32.33 33.03 33.53 29.87 30.46 28.44 26.98 26.44 26.41 26.66 26.59 25.88 25.51 26.29 24.43 20.96 19.01 18.71 18.46 17.20 15.17 12.36 11.31 12.36 9.41 9.29
26.16 28.08 27.87 28.18 27.90 26.86 27.21 26.62 26.48 26.32 26.04 26.84 27.14 28.10 29.82 31.06 31.32 31.82 32.74 29.72 27.88 27.80 28.19 27.67 27.96 28.02 27.99 26.93 25.84 25.03 24.10 22.45 18.94 17.37 17.39 16.16 14.73 11.79 9.04 9.69 10.57 7.90 6.19
25.18 22.80 22.49 26.61 27.21 26.70 26.37 25.59 25.35 25.26 25.82 26.09 26.38 26.47 28.13 27.99 27.96 28.93 28.75 29.16 28.72 28.98 29.16 28.68 27.24 25.15 23.98 23.34 22.32 21.79 20.94 19.87 18.39 17.00 15.95 15.36 13.50 12.41 10.83 7.93 6.67 6.33 3.15
22.26 23.57 17.58 24.25 24.97 25.28 25.24 24.89 24.53 24.70 24.97 25.91 26.50 26.81 27.85 26.88 27.93 28.40 28.49 28.03 28.03 28.54 28.28 26.24 23.06 22.46 20.88 19.81 19.28 18.60 17.65 16.89 15.74 14.38 13.87 13.59 12.24 10.24 10.62 10.80 7.25 3.38 2.52
18.90 19.88 20.60 20.26 20.69 20.97 21.30 21.71 21.88 22.12 22.57 22.53 23.16 23.64 26.71 25.55 24.57 25.56 26.92 28.08 29.44 27.63 26.07 24.20 22.35 20.96 18.81 16.86 16.14 15.89 15.15 14.80 15.13 13.89 12.67 12.15 10.32 9.73 9.08 8.68 8.63 7.62 3.44
15.89 16.18 17.24 17.61 17.73 15.13 17.19 18.25 18.29 18.58 18.90 19.44 19.70 19.18 18.47 19.80 21.61 23.20 23.06 24.92 24.05 21.51 21.15 19.85 19.36 17.74 16.63 15.31 15.44 15.09 14.23 13.52 14.28 13.35 11.66 9.53 8.47 7.97 7.65 7.16 6.40 6.11 5.61
12.56 12.88 12.92 13.70 14.27 12.68 13.64 14.51 15.11 13.08 14.02 14.60 16.06 17.19 17.29 17.22 17.69 18.96 21.33 21.48 20.69 19.78 19.32 17.52 16.60 16.24 15.30 13.14 12.57 12.78 13.78 14.43 13.76 12.57 11.78 9.77 7.82 7.55 7.12 6.89 6.90 5.48 5.08
9.90 9.61 9.62 10.05 9.78 10.31 11.05 11.93 12.33 12.86 13.33 13.85 14.04 14.33 14.67 14.58 14.50 14.85 15.24 16.82 14.68 15.61 15.72 15.06 13.52 12.73 12.92 11.96 10.77 10.27 10.57 12.64 10.67 10.17 9.53 9.13 7.98 7.10 6.37 6.08 5.22 4.61 3.45
6.79 6.82 6.89 7.34 7.43 7.72 7.81 8.07 8.95 9.85 10.14 10.95 11.55 12.37 12.63 12.49 12.77 12.83 12.76 13.53 13.25 11.97 12.64 11.73 11.03 9.63 10.06 10.59 9.91 10.00 9.47 10.28 8.77 7.18 6.79 6.29 5.74 5.83 5.63 4.51 3.72 3.71 2.70

GFSGL_sfc_wetblb_114.txt.gz
Wetbulb
55.42 57.88 58.16 59.19 59.77 59.10 60.87 59.89 58.85 52.38 49.84 47.79 47.63 46.42 45.14 43.05 42.12 40.14 38.42 38.21 37.10 36.20 35.75 35.00 34.63 34.88 34.18 34.47 34.66 34.19 33.19 32.67 31.13 31.49 32.97 32.77 32.24 31.63 32.46 32.99 32.79 31.27 31.60
50.04 52.00 54.28 56.07 55.41 56.59 57.50 55.35 51.16 49.09 47.48 47.00 45.33 44.76 43.69 41.94 40.59 38.93 38.07 37.46 35.80 34.36 35.07 34.56 34.03 35.34 33.71 34.01 33.69 32.90 32.76 32.69 32.42 30.47 30.65 30.42 30.49 31.12 31.14 30.20 32.24 33.33 31.14
48.26 48.54 50.40 52.90 54.43 54.80 52.31 49.56 47.76 46.24 45.43 44.59 43.76 43.18 41.96 40.31 39.49 40.27 37.72 36.38 35.09 34.72 34.54 33.61 33.48 33.18 31.95 32.43 32.49 32.26 32.89 33.67 31.59 29.68 28.67 30.54 29.72 29.10 28.12 28.57 28.69 28.01 31.91
46.88 46.87 46.84 48.05 49.55 49.93 47.85 45.59 44.16 43.13 41.45 41.07 40.90 41.21 40.36 38.49 38.72 37.29 35.99 35.69 34.67 34.18 34.45 33.85 33.12 32.59 32.14 31.99 31.78 31.83 32.30 30.69 30.42 29.07 27.69 26.79 26.37 28.53 26.72 25.77 24.88 25.09 25.95
45.14 45.10 45.22 44.89 45.76 45.05 42.63 42.70 40.58 39.81 40.27 39.49 38.16 37.17 37.50 36.72 36.89 35.22 35.43 34.45 34.05 32.82 33.21 33.27 32.94 32.60 34.13 34.15 32.60 32.07 31.65 30.86 29.76 29.03 28.44 26.39 26.86 27.22 26.48 26.28 24.71 23.53 22.89
43.16 42.85 43.98 42.57 39.95 37.33 35.90 35.39 36.17 35.32 36.15 35.44 34.63 34.63 35.00 36.40 37.83 37.38 35.44 33.66 32.99 32.01 31.33 30.98 31.89 31.56 34.56 36.03 36.08 35.67 34.27 31.61 30.33 27.87 27.64 27.73 28.47 27.64 26.34 24.74 26.49 23.05 17.79
39.23 37.95 37.54 36.15 35.34 34.84 33.63 34.07 33.76 33.04 32.41 32.52 32.64 32.92 32.59 32.63 37.65 37.38 35.61 33.17 32.42 31.66 31.09 30.64 30.27 30.31 31.01 31.36 33.92 34.40 34.32 35.42 34.73 31.05 28.12 28.98 28.08 28.56 26.93 24.96 26.26 25.81 24.71
35.93 35.61 34.34 33.79 32.98 32.20 31.63 31.96 32.07 31.67 31.66 31.78 31.74 32.47 32.54 32.52 37.36 37.22 34.91 32.34 31.30 30.38 30.67 30.48 29.93 29.47 30.20 30.21 30.45 30.73 31.16 31.84 32.22 31.88 30.42 30.15 30.08 29.34 27.80 28.10 27.57 25.92 23.11
34.96 34.43 33.71 33.44 30.74 31.03 31.82 31.38 31.14 30.60 30.28 31.18 31.78 31.95 32.14 31.80 37.29 36.68 33.90 30.73 30.35 30.19 30.43 30.61 30.35 29.69 31.66 33.31 30.70 29.95 30.42 31.18 33.85 34.12 33.68 33.21 33.09 33.33 31.39 28.30 18.02 14.34 11.00
34.26 34.19 33.27 32.66 31.31 29.97 30.00 30.70 30.30 30.82 30.82 29.84 30.51 31.82 31.66 32.34 36.35 36.14 32.64 30.45 29.17 29.28 29.64 30.46 30.84 31.32 32.90 33.81 30.63 30.07 29.01 29.38 29.20 27.61 27.81 29.66 30.18 29.15 32.16 26.52 21.34 13.01 10.68
33.31 31.90 29.95 29.38 28.42 28.81 28.35 27.30 28.17 30.04 29.69 29.86 29.98 30.88 31.77 32.59 33.87 35.73 34.33 30.23 29.44 28.86 28.96 29.07 30.13 33.55 33.71 34.21 33.90 30.87 30.18 30.38 30.78 28.99 27.87 26.45 26.96 27.09 27.21 25.09 23.74 20.34 12.28
28.95 28.24 27.00 25.45 28.10 28.30 27.35 26.25 29.32 30.25 30.12 29.38 29.38 28.69 29.81 31.53 33.49 35.95 35.32 32.69 32.51 29.47 28.93 29.42 30.01 32.86 33.91 33.90 33.05 33.55 33.40 32.15 29.10 26.92 25.35 25.57 26.12 26.35 27.12 27.81 27.25 23.01 19.78
25.91 23.89 23.89 25.14 26.71 27.51 26.64 24.39 28.17 30.13 29.24 28.14 27.82 27.41 26.89 28.15 30.65 35.21 35.72 34.53 33.12 30.74 30.73 31.04 31.87 32.90 33.57 33.60 33.79 33.65 31.47 31.49 29.35 27.44 26.48 25.89 26.81 27.29 25.97 24.28 23.16 15.61 14.97
23.40 23.45 23.96 23.70 24.14 24.56 26.36 25.86 25.17 25.52 25.79 27.73 27.75 27.69 27.17 26.36 27.61 31.01 32.70 33.93 32.91 32.24 31.64 31.32 32.12 32.16 32.67 31.96 30.23 32.50 31.79 31.37 29.37 28.00 26.53 25.86 25.14 23.16 22.41 21.67 17.15 16.30 11.02
24.30 22.82 22.97 23.50 22.12 22.39 23.66 23.05 24.14 24.15 25.70 23.38 24.50 27.45 27.34 25.15 26.45 29.44 31.36 31.35 32.36 31.95 30.69 29.62 29.48 28.96 28.28 28.50 28.34 28.84 29.06 28.25 27.67 27.72 25.67 24.82 24.38 21.79 19.67 17.30 15.40 11.61 9.45
24.16 23.05 22.21 22.07 20.95 21.68 21.24 21.44 29.33 30.94 31.57 32.31 32.95 28.53 26.12 30.38 30.83 30.89 31.58 32.59 33.41 33.81 30.33 28.50 27.47 27.31 26.70 26.76 26.62 27.10 27.91 27.10 26.06 24.27 23.23 22.95 21.83 20.92 19.53 15.98 14.53 13.96 12.01
20.10 21.10 20.83 21.38 20.51 19.91 19.36 19.03 17.95 22.91 30.28 30.05 30.64 32.04 32.40 30.98 32.29 31.95 31.94 32.01 32.62 33.06 30.06 28.75 27.95 27.75 27.27 26.91 26.72 26.31 25.91 26.82 25.58 23.34 22.88 22.46 20.86 19.55 18.51 17.56 16.24 13.48 10.98
17.47 19.09 17.47 17.47 17.63 17.24 17.28 17.35 16.83 16.79 16.34 17.64 25.97 29.33 30.99 31.74 32.34 32.19 32.61 32.16 29.46 30.89 30.08 29.44 28.10 28.29 27.66 26.90 26.42 25.88 26.01 25.82 24.03 22.80 21.87 21.30 19.96 19.07 16.39 15.64 14.47 10.58 9.93
15.82 15.81 14.88 15.01 15.00 16.01 15.60 15.52 14.63 14.60 14.53 14.67 18.07 24.16 25.11 31.09 31.66 32.03 32.44 30.42 28.87 28.82 29.62 28.96 28.89 28.53 27.93 27.68 27.50 26.95 26.11 25.63 23.43 21.83 20.28 19.59 19.14 17.36 16.26 15.35 14.86 13.78 9.57
12.65 16.23 14.34 11.92 12.77 13.25 13.70 18.10 21.05 16.46 18.66 16.68 18.27 16.56 16.36 22.26 26.49 27.29 28.62 29.22 29.39 28.75 28.27 28.58 29.05 29.03 28.85 28.61 27.34 26.08 24.93 23.78 21.51 19.12 18.82 18.44 17.62 16.44 15.90 14.55 14.15 11.89 9.92
8.14 10.13 12.08 10.25 11.51 8.65 8.17 9.91 14.41 20.27 21.88 22.26 23.06 24.11 28.15 24.32 24.03 24.61 26.84 27.92 28.45 28.75 28.82 29.35 29.43 27.80 26.30 25.21 24.08 22.67 22.49 22.26 21.50 19.81 18.15 17.43 16.06 13.94 14.29 13.95 13.39 12.72 10.72
4.94 4.56 4.15 4.34 4.84 5.95 4.69 5.51 5.96 6.10 6.05 7.59 11.08 10.93 24.30 21.19 18.16 22.45 24.99 26.65 27.49 28.76 29.57 29.55 28.96 26.65 25.30 23.04 21.68 20.77 19.86 19.11 18.54 17.52 16.36 15.95 14.44 13.59 12.36 12.32 11.43 10.80 9.84
1.13 1.24 1.85 3.01 2.02 4.04 3.85 2.07 3.01 2.81 3.16 3.87 6.60 9.41 8.22 5.35 7.41 8.93 11.89 19.12 18.53 17.90 19.17 20.64 21.22 19.99 19.23 19.40 19.54 19.51 18.32 17.51 17.74 17.72 15.79 14.39 13.10 12.35 11.43 10.54 10.16 9.42 7.97
-1.87 -1.27 -0.95 -1.18 -0.70 -1.24 -1.89 -0.62 -0.22 1.95 1.75 0.97 1.36 3.55 5.61 6.60 7.58 8.09 8.08 8.01 11.44 13.05 12.03 11.55 14.31 17.40 17.99 14.85 14.64 16.15 16.54 17.07 16.86 16.64 15.67 13.78 11.85 10.73 9.84 9.41 8.61 8.35 7.94
-3.43 -4.03 -5.13 -3.90 -5.19 -4.28 -3.10 -4.01 -2.61 -3.52 -2.81 -0.89 -0.15 0.58 0.45 2.47 4.09 4.65 4.90 5.22 7.12 8.49 5.95 6.12 5.71 4.85 7.04 10.78 8.93 9.20 11.73 14.64 13.88 13.42 13.32 12.40 10.37 9.27 8.87 8.35 7.76 7.02 6.96
-5.59 -5.12 -4.70 -5.84 -6.64 -6.96 -6.57 -5.39 -4.54 -3.34 -2.67 -0.62 0.17 1.61 2.44 3.19 4.42 4.60 5.24 5.44 5.18 5.56 5.73 4.03 5.64 7.28 7.86 8.33 9.09 9.34 10.01 12.36 11.76 10.35 10.54 9.87 8.58 7.74 7.93 7.15 6.60 6.04 5.27

GFSGL_sfc_wetblb_117.txt.gz
Wetbulb
56.55 59.16 59.75 60.17 60.66 60.95 60.88 60.59 60.79 59.54 56.65 56.02 54.57 53.10 51.88 50.06 47.75 45.97 42.77 40.08 40.00 38.38 36.82 35.74 34.33 34.50 33.31 33.42 33.80 33.51 32.83 32.67 30.74 30.50 32.34 33.22 33.06 31.95 32.06 32.04 32.24 30.71 30.82
50.62 52.86 54.29 55.64 55.22 58.17 60.16 60.82 58.51 56.82 54.39 54.43 51.98 50.66 49.89 48.10 45.27 44.73 41.84 41.41 40.54 37.26 36.49 35.39 33.81 34.63 33.07 33.60 33.18 32.36 32.30 32.34 31.80 29.70 30.80 31.36 31.83 31.18 29.95 29.54 31.35 32.41 30.25
46.09 46.92 48.07 49.47 51.55 52.72 54.76 53.18 51.53 50.25 49.28 47.82 47.80 48.05 46.80 45.39 43.16 42.62 43.55 40.45 38.05 38.85 36.72 35.54 34.65 33.89 32.08 32.40 31.73 31.88 32.43 32.95 31.62 29.06 29.19 31.98 31.47 30.63 27.43 28.10 28.68 28.45 30.96
45.31 45.36 45.15 45.90 48.81 50.13 50.51 50.23 48.33 47.41 46.33 45.88 45.69 45.82 44.84 42.95 42.34 40.75 40.49 38.77 37.30 35.96 36.43 35.65 34.60 33.88 32.59 32.04 32.00 32.00 31.51 29.82 29.67 29.01 29.30 30.04 29.79 29.29 26.23 25.95 25.37 26.20 26.97
43.82 43.97 44.03 43.20 45.29 44.97 44.05 43.40 43.24 42.52 43.05 42.68 41.12 40.83 40.72 40.37 40.46 38.90 38.45 37.55 36.08 34.96 34.85 34.24 33.93 32.78 33.82 34.27 32.79 31.77 31.36 30.37 29.40 29.24 29.31 29.47 29.14 28.31 26.86 26.50 26.47 25.73 25.80
42.46 42.16 42.51 41.82 39.96 39.12 38.12 37.61 39.13 38.63 38.68 37.86 37.49 36.89 37.14 38.89 39.42 39.05 37.24 35.52 34.87 33.73 33.20 32.97 32.86 31.78 34.19 35.75 35.84 35.23 33.69 30.91 29.77 28.82 29.34 29.76 29.89 28.76 27.19 25.85 26.03 24.22 22.82
38.47 37.16 37.22 36.84 37.01 36.18 35.10 34.30 34.27 35.28 35.16 35.15 34.62 33.44 34.77 35.82 38.55 38.02 36.58 34.90 34.18 33.73 32.71 31.68 31.10 31.20 32.15 32.89 35.86 36.08 35.02 35.77 34.52 31.61 29.94 30.42 29.41 29.15 27.53 25.09 26.01 25.67 24.91
35.65 35.40 34.89 34.56 33.81 33.06 32.37 32.35 32.41 33.65 33.53 33.04 33.00 33.18 33.42 32.74 38.48 37.99 35.58 33.29 33.27 33.01 32.75 32.23 31.83 30.71 31.24 31.54 31.70 31.53 31.51 32.51 33.01 32.98 31.52 31.08 30.65 30.00 28.92 27.83 26.61 25.86 25.73
34.18 33.97 33.63 33.22 29.74 30.97 27.99 28.98 32.52 31.60 31.06 31.20 31.55 32.02 32.04 31.63 37.79 37.50 35.04 32.10 31.50 31.14 31.27 31.41 31.16 29.98 31.93 33.86 30.96 30.17 30.23 30.57 34.08 35.05 34.30 33.79 34.00 33.61 30.95 27.82 24.75 22.94 21.11
33.24 33.53 33.06 31.76 28.53 27.54 28.47 30.12 30.58 31.13 31.12 30.31 30.92 31.82 31.61 32.33 37.21 37.38 33.85 32.66 31.83 30.33 30.32 30.47 30.40 30.85 32.62 33.93 30.22 29.29 27.82 29.25 30.45 30.43 31.57 32.52 32.86 30.68 33.36 30.02 25.12 19.43 18.30
31.21 30.19 28.09 27.75 26.50 26.75 25.75 25.13 25.20 28.95 29.87 30.31 30.16 30.82 31.71 32.30 34.17 36.92 35.65 31.72 31.58 30.16 30.10 29.82 30.31 33.35 33.28 34.09 33.46 30.31 29.96 30.87 31.73 29.92 29.31 28.51 27.01 26.67 26.97 27.00 27.00 24.31 19.74
27.19 26.68 25.21 22.52 26.35 25.28 21.95 21.64 23.56 30.45 30.46 29.96 29.85 29.21 29.35 30.07 33.02 36.40 36.28 34.06 32.86 30.57 29.68 29.98 30.27 33.37 33.98 34.29 33.73 33.33 33.35 32.07 30.40 30.29 28.07 27.04 26.18 25.70 26.58 26.97 26.52 25.10 25.30
25.28 23.44 21.41 22.74 23.97 22.98 20.06 19.58 21.24 22.54 24.57 28.43 28.10 27.89 27.42 28.46 30.04 35.07 36.14 35.27 33.36 30.80 30.79 31.06 31.86 32.97 34.17 34.16 34.77 34.52 32.23 31.72 29.76 28.33 27.33 27.57 27.02 27.51 27.32 26.67 26.77 26.81 24.45
22.97 22.54 21.44 20.72 20.67 20.84 23.23 22.34 19.93 19.98 20.17 22.31 23.35 27.32 27.29 26.90 28.35 30.43 33.16 34.43 32.96 33.00 31.89 31.27 31.92 32.07 32.93 32.88 31.49 33.32 32.25 31.71 30.72 29.18 28.75 28.59 26.94 24.76 24.90 24.86 23.45 22.19 20.06
22.30 21.68 21.22 20.54 18.49 19.74 21.19 20.15 21.80 20.55 22.11 18.72 18.90 20.09 20.88 20.77 27.41 30.46 32.50 32.75 33.11 32.65 30.51 29.40 29.81 30.11 29.57 30.17 30.19 30.35 31.32 31.34 30.02 30.00 29.06 26.54 25.79 24.60 24.08 22.84 21.51 19.09 18.26
22.09 21.27 20.58 19.51 18.31 19.00 18.29 19.26 28.17 30.01 31.53 31.83 32.11 27.15 21.27 29.33 31.43 31.48 32.05 33.36 34.24 34.43 30.13 28.73 27.81 28.28 28.09 28.03 28.03 28.06 28.69 28.81 29.10 29.56 28.66 27.28 25.55 24.15 23.58 21.47 20.33 19.59 17.89
19.29 18.14 17.14 18.59 17.61 16.04 15.47 15.66 16.96 21.89 28.90 30.26 30.46 30.88 31.34 32.23 32.11 32.27 32.16 32.28 32.85 33.22 30.09 28.88 28.34 27.87 27.72 27.67 27.69 27.57 27.16 28.17 29.23 27.91 26.48 25.89 25.03 24.07 22.41 21.31 20.03 19.25 17.43
13.33 14.87 14.64 12.60 12.48 12.11 12.02 12.08 10.55 11.28 11.92 14.51 23.42 28.46 30.06 31.19 31.80 32.30 32.29 31.97 29.53 30.07 29.30 28.66 28.49 28.89 28.46 28.06 27.64 27.49 27.54 27.65 27.03 26.24 25.23 24.89 23.93 22.51 20.48 19.97 19.59 18.66 17.30
14.45 12.53 10.43 11.24 10.28 10.84 10.21 10.64 11.38 10.95 11.04 11.70 10.33 20.99 20.46 29.04 30.11 31.00 31.80 28.87 27.60 27.66 28.30 28.69 29.25 29.50 29.22 28.26 28.45 28.11 27.74 27.23 26.16 25.02 24.22 23.37 22.62 21.04 20.08 19.35 19.34 18.28 17.53
8.96 13.08 9.88 8.18 8.80 9.00 10.20 10.60 11.70 12.83 14.16 15.31 13.63 15.48 19.96 23.08 22.68 25.05 26.83 27.73 27.77 28.22 29.24 29.28 29.90 30.13 29.45 29.32 28.91 28.61 28.00 26.73 26.02 25.19 24.14 22.59 21.66 20.52 19.03 18.24 17.70 17.00 15.37
0.61 3.26 5.77 4.79 4.23 1.36 1.29 2.84 3.61 2.92 3.65 3.70 6.44 10.16 24.38 19.93 20.64 20.94 19.60 21.01 25.59 26.79 27.64 28.45 28.54 28.93 29.51 29.43 29.28 28.58 27.49 26.56 25.20 22.02 21.44 20.58 19.95 18.05 18.35 18.71 17.42 16.48 16.26
-1.43 -2.25 -1.80 -1.34 -0.53 2.63 -0.27 0.51 -0.35 -0.54 -0.97 -0.21 3.30 4.41 18.96 4.73 4.26 7.96 12.73 17.69 18.51 20.04 21.84 22.34 23.44 24.16 24.12 24.99 24.90 23.95 22.83 22.18 21.96 21.47 20.54 19.70 18.90 17.88 17.19 16.07 15.16 15.04 14.61
-2.38 -2.18 -1.74 -3.08 -3.77 -1.82 -2.61 -5.00 -4.24 -3.31 -3.42 -4.35 -2.32 1.28 -0.44 -1.55 -0.67 2.34 5.64 5.70 8.07 11.80 12.75 13.23 14.45 13.52 14.77 16.46 18.19 19.60 19.80 19.13 18.72 19.85 18.63 17.88 16.86 15.91 15.12 13.77 13.62 12.71 11.96
-5.91 -5.14 -4.21 -6.07 -6.94 -7.54 -7.92 -6.76 -6.20 -3.18 -4.00 -4.38 -5.11 -1.46 0.35 -0.23 0.22 0.80 0.94 1.63 3.08 4.44 5.44 6.92 6.99 7.30 8.57 7.12 8.21 10.80 13.32 14.32 13.15 14.28 16.57 16.28 14.25 13.17 13.12 12.22 11.81 11.56 11.20
-6.92 -6.39 -6.17 -8.33 -10.11 -9.80 -8.93 -9.19 -7.05 -10.11 -8.70 -7.01 -5.74 -4.88 -4.80 -1.47 0.07 0.64 1.95 2.16 1.77 1.23 1.65 3.31 6.01 4.13 3.93 3.48 4.20 5.65 7.52 12.69 12.46 11.96 10.07 13.65 11.36 9.56 10.18 10.08 9.58 9.30 9.57
-7.99 -8.43 -9.24 -9.31 -9.75 -11.20 -11.04 -9.84 -9.46 -9.35 -9.35 -6.90 -6.14 -6.21 -4.14 -1.19 -0.47 -1.36 -0.81 -2.82 -4.33 -3.61 -3.42 -2.36 -1.43 -0.23 1.11 1.62 2.19 7.98 9.80 12.40 10.50 10.90 9.04 10.38 8.24 6.94 8.22 7.89 7.94 7.92 7.63

GFSGL_sfc_wetblb_123.txt.gz
Wetbulb
55.84 56.54 54.74 54.26 54.38 55.24 56.34 56.58 57.19 57.14 56.38 56.98 56.58 56.99 57.43 57.31 57.76 57.34 56.55 56.05 52.35 53.90 51.16 49.41 50.07 46.97 44.62 41.55 39.77 37.89 36.39 35.69 33.11 30.55 32.22 32.54 32.44 32.00 32.90 33.33 33.12 32.92 31.91
53.30 54.61 55.48 55.60 54.80 54.75 55.37 56.44 57.67 58.39 58.41 58.21 57.48 56.98 56.97 56.95 57.22 55.51 54.85 52.66 51.90 51.23 50.99 46.52 46.32 41.07 40.90 39.64 37.26 36.65 35.71 35.59 33.66 30.64 30.37 30.79 31.41 32.18 31.58 31.93 31.90 32.81 31.49
44.19 48.08 49.53 50.68 51.43 52.57 54.65 55.74 55.48 56.20 57.16 55.64 56.29 56.12 55.87 54.94 53.49 52.41 53.06 51.02 48.67 48.52 47.40 44.14 44.80 41.23 38.05 36.63 35.41 34.99 34.63 34.45 33.25 31.12 29.82 30.93 30.71 30.81 29.98 30.23 30.18 29.91 31.14
41.11 41.26 41.54 42.14 43.69 44.96 46.31 47.28 48.41 49.66 51.35 50.91 50.14 49.72 48.81 48.27 47.87 47.35 46.97 45.85 44.11 43.63 42.87 41.87 40.88 38.56 37.83 35.24 34.48 33.91 33.05 32.09 31.62 31.14 30.66 30.05 29.41 29.70 28.80 28.16 27.59 27.55 28.50
40.82 41.05 40.97 40.79 42.10 42.47 42.24 43.30 42.71 42.93 43.78 44.16 44.34 43.46 44.02 44.33 44.29 43.80 42.91 41.81 40.72 40.41 38.88 38.65 38.00 36.52 36.72 36.38 34.69 33.14 32.86 31.75 31.44 31.06 29.96 29.67 29.16 28.07 28.38 28.20 28.04 27.17 27.40
39.90 39.39 39.42 38.59 37.30 36.90 38.09 38.21 38.85 38.89 39.61 37.33 39.15 38.65 38.74 41.12 40.95 41.40 40.83 39.95 38.88 37.80 36.40 35.40 34.63 33.26 35.82 36.69 36.27 35.74 34.69 32.23 30.88 31.04 31.09 29.86 30.24 29.39 28.56 27.19 26.97 25.07 24.94
36.34 35.17 35.32 35.65 35.37 34.61 34.28 34.32 34.00 34.09 34.66 37.13 36.92 36.57 36.56 36.17 38.52 39.69 39.20 36.73 36.40 35.98 35.05 33.61 32.76 33.19 33.63 34.38 36.26 36.40 35.57 36.22 35.71 33.52 30.72 30.39 29.21 30.16 29.33 26.13 26.15 26.26 26.34
34.44 34.40 34.17 34.38 33.82 33.14 32.86 32.71 32.49 32.69 34.12 34.69 34.30 34.45 34.49 34.21 36.88 38.28 37.74 35.30 34.79 34.50 33.99 33.34 32.76 32.22 33.11 32.98 33.58 33.01 33.07 33.69 34.70 33.73 32.06 30.69 30.26 31.07 31.70 29.73 27.22 25.66 25.05
32.91 32.89 32.74 32.79 29.79 30.19 28.33 28.25 32.57 32.82 32.00 31.75 31.81 32.61 32.31 32.44 35.15 37.54 35.97 33.40 32.81 32.52 32.65 32.92 32.86 32.17 33.83 35.10 32.42 32.12 32.11 32.30 34.56 36.04 34.87 34.53 35.02 34.79 32.05 28.30 23.35 19.10 16.60
32.04 32.18 31.90 30.91 29.40 29.01 29.05 28.04 29.96 31.73 30.54 29.60 30.96 29.07 28.33 27.78 34.57 37.54 35.62 32.01 31.03 30.92 31.23 31.85 31.47 32.67 34.73 35.59 32.33 32.28 30.67 31.20 28.04 30.93 32.83 34.00 34.55 32.64 34.44 30.14 27.55 22.85 18.50
30.41 28.86 26.53 26.44 25.48 25.84 24.29 23.67 24.30 25.75 28.22 22.27 24.11 24.12 25.59 27.20 29.50 36.66 37.23 32.02 31.98 29.19 30.94 30.59 31.04 34.54 34.73 35.68 35.56 32.12 31.75 30.71 29.04 26.02 31.81 31.91 31.88 31.72 31.70 32.06 28.58 28.08 23.24
25.88 25.14 23.64 21.36 25.42 23.19 22.01 18.57 20.01 21.29 21.76 21.14 21.38 22.23 23.09 25.05 30.72 33.78 36.93 35.64 33.64 30.06 29.00 27.94 29.40 33.37 34.97 35.16 34.13 34.74 34.28 30.58 21.98 26.79 28.93 29.21 29.37 29.58 30.57 31.16 31.21 29.40 30.25
22.06 19.78 19.17 21.09 22.17 21.00 21.05 19.22 21.21 19.79 20.39 20.68 22.16 21.46 22.56 24.16 25.00 32.12 34.31 36.63 36.17 29.16 29.96 30.22 32.46 33.09 33.98 34.20 35.04 34.95 32.61 31.61 29.67 27.86 27.30 28.17 29.04 29.82 28.20 28.24 28.60 28.94 28.16
21.09 20.38 20.01 21.39 20.87 20.55 22.61 21.76 20.08 18.97 18.88 18.72 18.86 18.93 18.01 20.79 22.09 23.20 25.54 28.31 31.11 33.49 31.46 29.42 31.64 31.69 32.58 32.33 30.52 32.15 30.97 31.74 30.07 28.83 28.48 29.45 30.28 24.06 27.30 27.67 26.85 25.60 24.54
22.41 21.32 20.44 19.87 19.46 20.09 20.02 20.02 21.85 18.22 20.85 16.19 13.33 13.46 15.06 17.83 21.40 30.24 27.92 22.50 30.22 31.65 31.11 29.97 29.27 28.49 27.99 28.47 29.13 30.25 31.10 31.66 31.28 31.05 29.85 29.17 28.83 28.65 27.80 28.01 26.43 26.20 23.61
21.17 20.26 19.48 19.97 17.92 18.34 20.19 20.00 30.50 30.90 31.38 31.47 31.31 25.87 17.81 28.60 32.31 32.62 32.83 32.71 32.59 32.61 30.81 28.35 27.26 26.89 26.54 26.97 27.29 28.18 29.07 29.04 29.30 29.70 29.77 29.39 28.54 28.24 27.96 27.66 26.50 25.24 24.23
20.00 18.28 17.46 17.36 16.82 17.02 14.95 16.40 17.63 18.40 28.51 29.43 29.65 29.37 30.49 30.86 31.20 31.75 32.00 32.24 31.87 31.24 27.75 27.81 27.60 27.39 27.66 27.43 27.96 28.35 27.65 27.74 29.22 29.11 28.91 28.99 29.15 29.03 28.61 26.86 26.08 23.59 23.67
14.35 14.49 15.34 13.83 14.30 13.25 13.01 9.87 9.86 11.78 8.88 9.75 20.03 24.79 26.50 28.81 29.71 30.32 30.96 29.30 25.73 28.31 27.75 27.17 27.20 27.77 28.25 27.64 27.44 22.62 23.79 21.54 25.28 26.97 27.07 27.55 28.16 28.14 27.63 26.19 25.42 24.11 22.44
14.42 12.59 10.92 10.15 10.21 10.38 9.27 8.62 6.69 7.17 5.79 2.86 4.18 15.04 12.95 23.28 24.16 24.27 24.09 11.14 15.24 22.82 24.90 25.37 26.25 26.34 24.41 25.44 26.39 27.08 27.63 26.92 26.84 27.43 27.14 26.82 27.24 27.10 26.22 25.74 25.41 23.93 22.62
8.46 9.57 8.35 7.90 7.20 6.97 6.76 6.96 5.76 4.67 2.42 0.16 0.58 2.25 2.71 5.38 1.17 1.89 1.92 2.44 6.96 5.96 9.76 9.46 11.65 13.30 15.35 16.04 17.02 18.01 19.14 22.26 25.91 27.00 26.89 26.96 26.70 26.34 25.02 24.35 23.60 22.16 21.34
3.91 4.20 5.00 3.85 3.09 1.37 -0.23 2.21 0.92 -0.20 -2.12 -4.59 -1.65 2.91 18.37 -3.23 -6.47 -6.51 -6.31 -4.17 -3.21 -2.32 -0.42 -1.53 2.37 6.33 8.94 9.03 7.99 10.51 12.05 14.80 17.21 18.28 19.26 20.17 20.65 21.44 21.04 21.72 21.22 20.71 19.98
4.97 2.87 1.90 0.87 -0.02 2.32 -1.59 -3.09 -4.05 -3.76 -5.77 -3.77 -2.98 -1.45 13.18 -4.61 -7.45 -7.42 -7.83 -7.69 -7.96 -7.25 -7.36 -7.07 -4.21 -2.45 0.63 3.30 4.09 1.76 1.57 4.57 6.76 10.73 12.57 13.81 15.00 16.12 15.14 16.98 15.05 13.26 14.82
6.26 4.07 1.57 -0.23 0.03 -0.40 -0.08 -1.69 -1.48 -6.51 -7.44 -9.38 -8.99 -5.45 -6.89 -9.14 -9.30 -8.78 -9.14 -9.85 -9.28 -8.32 -6.11 -8.49 -8.45 -5.31 -3.82 -6.57 -6.67 -5.28 -3.47 -0.35 2.25 5.41 7.90 7.07 7.93 11.83 10.94 13.53 12.32 10.42 8.84
4.53 5.57 4.94 2.91 1.66 -1.47 -2.75 -5.63 -5.64 -4.90 -4.12 -9.03 -12.51 -11.70 -7.49 -8.65 -10.43 -9.25 -9.48 -10.26 -7.84 -8.77 -12.26 -10.90 -8.74 -7.83 -7.32 -6.86 -6.37 -8.19 -9.50 -4.43 -1.87 3.51 5.04 5.68 6.43 5.48 6.87 8.56 10.23 9.96 10.69
3.86 3.84 2.99 0.78 1.01 0.30 -3.34 -6.25 -6.11 -10.00 -9.36 -5.54 -5.93 -6.96 -6.66 -7.26 -9.06 -9.64 -8.83 -9.80 -11.32 -12.31 -6.82 -5.67 -6.04 -7.14 -6.79 -6.36 -5.70 -4.75 -3.27 1.17 0.04 0.81 3.95 3.51 3.40 4.25 4.33 6.02 5.71 3.81 4.86
2.71 2.54 2.01 0.35 -1.62 -3.21 -4.32 -5.06 -6.56 -6.09 -7.02 -7.26 -7.10 -7.56 -6.63 -7.89 -8.44 -8.67 -9.94 -10.22 -7.07 -6.19 -5.33 -6.70 -7.57 -8.48 -7.60 -6.07 -5.97 -1.37 2.49 8.87 7.23 8.35 6.17 1.33 2.04 -0.58 -0.26 2.33 3.04 1.96 2.08